Naval Air Station North Island

Airport
ICAO code: 
KNZY
Summary
ICAO Region: 
NAM
Territory: 
Location: 
San Diego, California,
Coordinates: 
Aerial View: 
32° 41' 52.657" N, 117° 12' 15.645" W
Airport WX: 
Fog
Metar
Observation
KNZY 241652Z 00000KT 10SM CLR 16/03 A3010 RMK AO2 SLP191 T01560033
Station
San Diego, North Island, Naval Air Station
Date/Time
2022-01-24 16:52:00
Wind direction
Wind speed
00 kts
Lowest cloud amount
n/a
Temperature
15.6°C
Dew point
3.3°C
Humidity
43%
Weather condition
n/a

Description

Naval Air Station North Island, or NAS North Island, is located at the north end of the Coronado peninsula on San Diego Bay in San Diego, California. It is the home port to the aircraft compliment of several aircraft carriers of the United States Navy.

Climatology

Semi-arid or Mediterranean (Köppen climate classification BSh or Csa/Csb). It enjoys mild, sunny weather throughout the year. Since the San Diego area straddles areas of Mediterranean climate (Csa) to the north, and Semi-arid climate (BSh) to the south and east, the climate is often referred to as "Mediterranean" or "arid-mediterranean". Fog is common in May and June.

Runways

Designator Length Width Surface Rops
11/29 2286 91 PEM Yes/Yes
18/36 2438 61 PEM Yes/Yes
Airport map: 
Aerial View: 

SKYbrary Partners:

Safety knowledge contributed by: